{"data":{"norad_id":63091,"intl_designator":"2025-037Q","name":"STARLINK-32925","alt_names":[],"object_type":"PAYLOAD","status":"ACTIVE","operator":null,"country":"US","launch_date":"2025-02-23","launch_site_code":"AFWTR","launch_vehicle":null,"mission":null,"orbit_class":"UNKNOWN","rcs_meters":null,"size_class":null,"mass_kg":null,"dimensions":null,"purposes":["comms"],"wikipedia_slug":null,"has_3d_model":false,"image_url":null,"decayed_at":null,"tle_current":{"epoch":"2026-05-25T02:42:50.196672Z","epoch_age_seconds":62118,"freshness":"FRESH","line1":"1 63091U 25037Q   26145.11308098  .00004661  00000+0  39802-3 0  9995","line2":"2 63091  70.0005 161.5988 0004345 263.4034  96.6630 14.98339787 69991","mean_motion":14.98339787,"eccentricity":0.0004345,"inclination_deg":70.0005,"raan_deg":161.5988,"arg_perigee_deg":263.4034,"mean_anomaly_deg":96.663,"bstar":0.00039802,"rev_number":6999,"period_min":96.106371364748,"perigee_km":569.00577995816,"apogee_km":575.04547127982,"semimajor_km":6950.162625619,"source":"CELESTRAK","updated_at":"2026-05-25T13:38:19.879922Z"}}}